map of SHG home
Great Circle Mapper logo
SHG - Airport
Location
City:  Shungnak, Alaska, United States
ICAO / IATA:PAGH / SHG
FAA:SHG

Details
Type:Airport (Airfield)
Use:Public/Civil
Latitude:6653'17"N (66.888083)
Longitude:15709'45"W (-157.162416)
Datum:WGS 1984
Elevation:205 ft (62 m)
Variation:15.22E (WMM2015 magnetic declination)
-0.42 annual change
Runways:1
Longest:4001 × 60 ft (1220 × 18.5 m)

Time
Time Zone:UTC-9 (DST-8)
Local Time:

Weather
METAR:PAGH 060321Z AUTO 26004KT 3SM -SN BR CLR M13/M14 A2997 RMK AO2 P0000 FZRANO

Related Locations
Nearby:
Farthest:NZSP: 10827 mi / 17424 km
Amundsen-Scott South Pole Station [Jack F. Paulus Skiway], AQ

Find:

   beyond  
but within

Other Information
Maps:
NOTAMs:
Links:
Sources:

  
flag of United States
flag of Alaska
  

Sectional Chart

Flight Planning
at skyvector.com

Satellite Image

Google Maps Satellite View

 

Copyright © 2004-2015 Karl L. Swartz. All rights reserved.
The Great Circle Mapper name and logo are trademarks of the Great Circle Mapper.
All other trademarks mentioned herein belong to their respective owners.
Please see credits for attibutions and further copyright information.

  Follow gcmap on Facebook Follow gcmap on Twitter Follow gcmap on Google+

hCard Microformat

Geo Microformat